Orbital Elements at Epoch 2459200.5 (2020-Dec-17.0) TDB
Reference: JPL 16 (heliocentric ecliptic J2000)
Element | Value | Uncertainty (1-sigma) | Units |
e | .1603611106344022 | 3.5361e-08 | |
a | 2.720409582689955 | 1.2903e-08 | au |
q | 2.284161680629323 | 9.6243e-08 | au |
i | 11.27348316896401 | 4.8469e-06 | deg |
node | 178.8571105577037 | 2.0301e-05 | deg |
peri | 83.31357499318833 | 2.5182e-05 | deg |
M | 242.6794482293264 | 1.6048e-05 | deg |
tp | 2459734.598633631184 (2022-Jun-04.09863363) | 7.4724e-05 | TDB |
period | 1638.890247320581 4.49 | 1.166e-05 3.192e-08 | d yr |
n | .219660834878091 | 1.5628e-09 | deg/d |
Q | 3.156657484750586 | 1.4972e-08 | au |
|
| | Orbit Determination Parameters
Additional Information
|